Miscellaneous Local Product
Issued by NWS Hastings, NE

Home | Current Version | Previous Version | Graphics & Text | Print | Product List | Glossary On
Versions: 1 2 3 4 5 6 7 8 9 10 11 12 13 14 15 16 17 18 19 20 21 22 23 24 25 26 27 28 29 30 31 32 33 34 35 36 37 38 39 40 41 42 43 44 45 46 47 48 49 50
000
AXUS43 KGID 040202
MISGRI

GID CWA HOURLY WEATHER ROUNDUP
NATIONAL WEATHER SERVICE HASTINGS NE
800 PM CST TUE MAR 03 2015

NOTE: "FAIR" INDICATES FEW OR NO CLOUDS BELOW 12,000 FEET WITH NO
SIGNIFICANT WEATHER AND/OR OBSTRUCTIONS TO VISIBILITY.

...SOUTH CENTRAL NEBRASKA...

CITY           SKY/WX    TMP DP  RH WIND       PRES   REMARKS
GRAND ISLAND   FAIR      20   4  50 N16       30.04R WCI   6
HASTINGS       CLEAR     22   4  46 N17       30.01R WCI   8
KEARNEY        CLEAR     21   0  39 N14       30.02R WCI   8
ORD            CLEAR     18   1  47 N13       30.04R WCI   5
YORK           PTCLDY    23   7  50 N14G20    30.02R WCI  11
AURORA         CLEAR     22   6  49 N16G22    30.03R WCI   8
LEXINGTON      MOCLDY    23   3  42 N12       30.02R WCI  11
HOLDREGE       CLEAR     22  -1  36 N13       29.99R WCI  10
HEBRON         MOCLDY    27   3  36 N8        30.03R WCI  19

...NEBRASKA PANHANDLE...

CITY           SKY/WX    TMP DP  RH WIND       PRES   REMARKS
CHADRON        CLOUDY    17   6  62 NW15      30.02R WCI   2
ALLIANCE       CLOUDY    15  10  80 NW8       29.97R WCI   4
SCOTTSBLUFF    CLOUDY    17   9  70 NW12      29.99R WCI   4
SIDNEY         CLOUDY    19  12  74 N18       29.94R WCI   4

...WESTERN AND NORTH CENTRAL NEBRASKA...

CITY           SKY/WX    TMP DP  RH WIND       PRES   REMARKS
VALENTINE      CLOUDY    14   2  58 NW7       30.05R WCI   4
AINSWORTH      MOCLDY    17   3  55 NW10G16   30.04R WCI   4
ONEILL         CLEAR     14   4  62 NW6       30.04R WCI   5
BROKEN BOW     MOCLDY    20   3  48 N10       30.01R WCI   9
IMPERIAL         N/A     23   6  48 NE9       29.99R WCI  13
NORTH PLATTE   CLOUDY    21   2  43 N10       30.01R WCI  10
MCCOOK         MOCLDY    27   5  39 N14       30.00R WCI  16

...EASTERN NEBRASKA...

CITY           SKY/WX    TMP DP  RH WIND       PRES   REMARKS
NORFOLK        CLEAR     17   4  56 N10       30.05R WCI   5
SO SIOUX CITY  CLEAR     18   6  59 N14       30.08R WCI   4
TEKAMAH        FAIR      20   7  57 N13       30.07R WCI   7
COLUMBUS       PTCLDY    19   0  42 N12G20    30.07R WCI   7
ALBION         CLEAR     18   2  50 N9        30.05S WCI   7
OMAHA EPPLEY   PTCLDY    22   8  55 N17G24    30.06R WCI   8
OFFUTT AFB     PTCLDY    24   7  48 N15G24    30.04R WCI  11
MILLARD        PTCLDY    25   7  47 NW8G18    30.05R WCI  16
LINCOLN        MOCLDY    24   6  46 N17       30.07R WCI  11
NEBRASKA CITY  MOCLDY    27   4  37 N17G24    30.01S WCI  14
BEATRICE       CLOUDY    27   7  42 N10       30.03R WCI  17
FALLS CITY     CLOUDY    30  17  58 N12       30.01R WCI  20

...NORTHERN KANSAS...

CITY           SKY/WX    TMP DP  RH WIND       PRES   REMARKS
GOODLAND       CLOUDY    27  15  61 NE8       29.95R WCI  19
HILL CITY      PTCLDY    24  11  57 NE10      30.00R WCI  14
NORTON         PTCLDY    25   3  39 N9        29.99R WCI  15
PHILLIPSBURG   CLEAR     28  10  47 CALM      30.02R
SMITH CENTER   CLEAR     25   3  39 N10       30.01R WCI  15
BELOIT         CLEAR     28  10  47 N14       30.01R WCI  17
HAYS           PTCLDY    28  10  47 NE8       29.99R WCI  20
RUSSELL        MOCLDY    28  15  58 N10       29.97R WCI  19
CONCORDIA        N/A     29  10  45 NE14      30.01R WCI  18
SALINA         CLOUDY    34  17  50 N16       29.99R WCI  24
TOPEKA         CLOUDY    34  22  61 N6        29.98R WCI  29



USA.gov is the U.S. government's official web portal to all federal, state and local government web resources and services.